Location: Eboldshausen
(51.7766°N, 10.0050°E)
Time: 06:31:29
(UTC+00:00)

Cosmos 1862 - Pass Details

Date: 15 November 2025
Orbit: 473 x 485 km, 82.5° (Epoch: 10 December)

Event Time Altitude Azimuth Distance (km) Brightness Sun altitude
Rises 17:32:23 0° 351° (N) 2,541 6.7 -18.8°
Reaches altitude 10° 17:34:30 10° 355° (N) 1,659 5.7 -19.1°
Enters shadow 17:37:37 55° 35° (NE) 582 3.1 -19.6°
